Date_and_time,latitude,longitude,wind_speed,RelWindDirFrom,WindDirFrom,air_pressure,air_temperature,relative_humidity,Temp,platform_speed_wrt_ground,air_pressure_at_mean_sea_level,platform_orientation
2018-06-20 23:40,50.9117233333333,-96.982535,3.5,4.5,180,985.46,28.0,38,21.60,0.0,1010.76,270.0
2018-06-20 23:50,50.9117183333333,-96.9825133333333,2.6,3.8,186,985.46,28.3,37,21.61,0.0,1010.73,270.0
2018-06-21 00:00,50.911725,-96.98252,2.2,3.0,181,985.46,28.8,37,21.62,0.0,1010.71,360.0
2018-06-21 00:10,50.91173,-96.9825266666667,2.3,2.8,153,985.49,29.1,31,21.64,0.0,1010.74,360.0
2018-06-21 00:20,50.9117466666667,-96.982505,2.4,2.9,112,985.52,29.9,28,21.64,0.0,1010.74,360.0
2018-06-21 00:30,50.9117383333333,-96.9825166666667,1.8,5.6,169,985.56,29.5,30,21.63,0.0,1010.78,360.0
2018-06-21 00:40,50.9117266666667,-96.982545,2.9,10.2,248,985.60,29.4,32,21.63,0.0,1010.82,360.0
2018-06-21 00:50,50.9117383333333,-96.9825083333333,9.1,13.7,276,985.45,29.3,35,21.64,0.0,1010.64,360.0
2018-06-21 01:00,50.9117333333333,-96.9825166666667,15.0,20.7,294,985.25,28.5,37,21.67,0.0,1010.44,0.0
2018-06-21 01:10,50.9117316666667,-96.9825216666667,12.4,16.8,286,985.53,27.8,39,21.70,0.0,1010.72,0.0
2018-06-21 01:20,50.9117283333333,-96.9825216666667,10.0,13.5,284,985.66,27.3,40,21.70,0.0,1010.87,0.0
2018-06-21 01:30,50.9117283333333,-96.9825233333333,8.7,11.0,287,985.77,26.7,43,21.68,0.0,1011.01,0.0
2018-06-21 01:40,50.9117583333333,-96.982555,7.5,9.4,284,985.81,25.9,45,21.66,0.0,1011.08,0.0
2018-06-21 01:50,50.9117433333333,-96.9825383333333,7.0,9.6,293,985.78,25.3,47,21.62,0.0,1011.05,0.0
2018-06-21 02:00,50.9117183333333,-96.982535,5.9,8.8,299,985.79,25.0,48,21.58,0.0,1011.07,149.8
2018-06-21 02:10,50.9117416666667,-96.9825216666667,5.2,7.0,301,985.80,24.7,48,21.54,0.0,1011.05,149.8
2018-06-21 02:20,50.91174,-96.98253,4.4,5.9,305,985.76,24.4,49,21.50,0.0,1011.03,149.8
2018-06-21 02:30,50.9117316666667,-96.9825366666667,4.8,6.5,296,985.72,24.2,50,21.46,0.0,1011.01,149.8
2018-06-21 02:40,50.91173,-96.9825383333333,5.0,5.8,287,985.71,23.6,52,21.42,0.0,1011.03,149.8
2018-06-21 02:50,50.91173,-96.9825366666667,5.6,6.1,293,985.69,23.2,54,21.38,0.0,1011.06,149.8
2018-06-21 03:00,50.9117316666667,-96.9825366666667,5.8,6.8,293,985.66,23.0,54,21.34,0.0,1011.07,299.5
2018-06-21 03:10,50.9117333333333,-96.9825383333333,5.6,6.5,294,985.68,22.9,55,21.30,0.0,1011.11,299.5
2018-06-21 03:20,50.9117316666667,-96.9825383333333,4.8,6.1,296,985.64,22.7,55,21.26,0.0,1011.11,299.5
2018-06-21 03:30,50.9117233333333,-96.98249,4.4,5.9,301,985.60,22.5,56,21.22,0.0,1011.11,299.5
2018-06-21 03:40,50.9117383333333,-96.982525,4.4,6.3,310,985.57,22.3,55,21.18,0.0,1011.11,299.5
2018-06-21 03:50,50.91174,-96.982535,4.3,6.3,310,985.56,22.2,55,21.14,0.0,1011.13,299.5
2018-06-21 04:00,50.911735,-96.9825316666667,3.9,5.2,309,985.58,22.2,55,21.11,0.0,1011.15,305.8
2018-06-21 04:10,50.9117316666667,-96.98254,3.8,4.8,310,985.59,22.3,54,21.07,0.0,1011.17,305.8
2018-06-21 04:20,50.9117366666667,-96.9825283333333,3.9,5.3,315,985.56,22.2,54,21.04,0.0,1011.16,305.8
2018-06-21 04:30,50.9117366666667,-96.9825283333333,4.0,5.8,313,985.56,21.8,55,21.01,0.0,1011.19,305.8
2018-06-21 04:40,50.911745,-96.9825133333333,3.6,5.0,304,985.54,21.8,56,20.99,0.0,1011.20,305.8
2018-06-21 04:50,50.9117366666667,-96.9825866666667,3.7,5.3,280,985.62,21.4,57,20.96,0.0,1011.31,305.8
2018-06-21 05:00,50.9117033333333,-96.9825116666667,3.5,4.3,276,985.69,21.2,57,20.95,0.0,1011.39,131.1
2018-06-21 05:10,50.9117266666667,-96.9825233333333,2.3,3.6,252,985.73,21.1,58,20.92,0.0,1011.45,131.1
2018-06-21 05:20,50.9117283333333,-96.98252,1.9,3.5,264,985.70,20.7,61,20.91,0.0,1011.45,131.1
2018-06-21 05:30,50.9117266666667,-96.9825216666667,4.3,4.9,293,985.60,20.6,61,20.88,0.0,1011.36,131.1
2018-06-21 05:40,50.9117283333333,-96.9825283333333,3.9,4.5,290,985.56,20.5,61,20.86,0.0,1011.32,131.1
2018-06-21 05:50,50.9117266666667,-96.9825283333333,3.0,4.3,273,985.60,19.7,65,20.85,0.0,1011.39,131.1
2018-06-21 06:00,50.9117283333333,-96.9825283333333,3.0,4.6,254,985.60,20.0,64,20.83,0.0,1011.37,90.0
2018-06-21 06:10,50.9117433333333,-96.9825166666667,3.9,5.1,263,985.55,20.0,64,20.81,0.0,1011.33,90.0
2018-06-21 06:20,50.911725,-96.9825116666667,3.7,5.3,255,985.54,19.8,65,20.79,0.0,1011.34,90.0
2018-06-21 06:30,50.9117233333333,-96.9825283333333,4.1,5.5,262,985.49,19.9,64,20.77,0.0,1011.30,90.0
2018-06-21 06:40,50.911735,-96.9825216666667,4.1,5.0,261,985.47,20.4,61,20.76,0.0,1011.27,90.0
2018-06-21 06:50,50.9117133333333,-96.982545,3.9,5.0,264,985.46,20.8,58,20.75,0.0,1011.25,90.0
2018-06-21 07:00,50.9117033333333,-96.9825483333333,3.4,4.2,264,985.42,21.1,56,20.73,0.0,1011.20,202.7
2018-06-21 07:10,50.9117283333333,-96.98253,3.4,4.4,279,985.40,20.7,59,20.71,0.0,1011.22,202.7
2018-06-21 07:20,50.9117133333333,-96.98251,3.0,4.0,276,985.33,20.1,60,20.70,0.0,1011.18,202.7
2018-06-21 07:30,50.9117183333333,-96.9825166666667,5.8,7.8,277,985.28,19.9,59,20.68,0.0,1011.13,202.7
2018-06-21 07:40,50.911725,-96.9825433333333,6.4,8.6,276,985.24,20.1,57,20.66,0.0,1011.12,202.7
2018-06-21 07:50,50.9117233333333,-96.982535,7.0,7.9,281,985.28,20.2,57,20.64,0.0,1011.14,202.7
2018-06-21 08:00,50.9117233333333,-96.982535,7.3,8.3,283,985.28,20.2,57,20.62,0.0,1011.15,333.4
2018-06-21 08:10,50.911725,-96.9825383333333,6.7,7.6,285,985.25,20.0,57,20.59,0.0,1011.13,333.4
2018-06-21 08:20,50.9117283333333,-96.9825366666667,6.6,7.5,282,985.21,20.2,55,20.58,0.0,1011.08,333.4
2018-06-21 08:30,50.91173,-96.9825383333333,6.4,7.1,286,985.14,20.4,54,20.56,0.0,1010.97,333.4
2018-06-21 08:40,50.91173,-96.9825366666667,6.4,8.3,281,985.12,20.6,53,20.54,0.0,1010.93,333.4
2018-06-21 08:50,50.9117066666667,-96.9825333333333,7.2,8.4,281,985.13,20.9,51,20.52,0.0,1010.91,333.4
2018-06-21 09:00,50.9117233333333,-96.982535,6.5,8.1,278,985.15,20.5,53,20.50,0.0,1010.96,189.8
2018-06-21 09:10,50.9117283333333,-96.98253,5.2,6.5,277,985.10,20.2,54,20.48,0.0,1010.96,189.8
2018-06-21 09:20,50.9117283333333,-96.982525,4.8,6.7,268,985.08,19.8,56,20.47,0.0,1010.96,189.8
2018-06-21 09:30,50.9117283333333,-96.982525,5.0,6.5,265,985.08,19.3,58,20.44,0.0,1010.97,189.8
2018-06-21 09:40,50.9117283333333,-96.9825266666667,5.4,7.7,268,985.05,19.1,58,20.42,0.0,1010.95,189.8
2018-06-21 09:50,50.9117216666667,-96.9825316666667,5.8,8.9,256,985.06,19.0,60,20.40,0.0,1010.96,189.8
2018-06-21 10:00,50.9117266666667,-96.9825233333333,6.7,9.2,262,985.03,18.8,59,20.38,0.0,1010.95,32.7
2018-06-21 10:10,50.9117283333333,-96.9825233333333,5.9,8.5,270,985.03,19.1,58,20.36,0.0,1010.93,32.7
2018-06-21 10:20,50.9117283333333,-96.9825216666667,5.8,8.1,271,985.07,19.8,55,20.35,0.0,1010.92,32.7
2018-06-21 10:30,50.911705,-96.9825066666667,5.4,7.2,272,985.08,20.1,55,20.33,0.0,1010.92,32.7
2018-06-21 10:40,50.9117216666667,-96.9825166666667,5.8,8.4,270,985.11,20.3,53,20.32,0.0,1010.92,32.7
2018-06-21 10:50,50.9117233333333,-96.9825216666667,5.9,7.7,277,985.14,20.7,52,20.30,0.0,1010.95,32.7
2018-06-21 11:00,50.9117233333333,-96.9825233333333,6.5,9.3,280,985.10,20.9,52,20.29,0.0,1010.92,90.0
2018-06-21 11:10,50.911725,-96.9825233333333,6.6,10.0,262,985.11,21.2,51,20.28,0.0,1010.94,90.0
2018-06-21 11:20,50.911725,-96.9825233333333,7.4,10.2,256,985.17,20.8,54,20.27,0.0,1011.03,90.0
2018-06-21 11:30,50.9117266666667,-96.9825233333333,7.2,9.7,255,985.24,20.3,56,20.27,0.0,1011.14,90.0
2018-06-21 11:40,50.9117283333333,-96.982525,7.1,9.8,261,985.32,20.3,57,20.26,0.0,1011.22,90.0
2018-06-21 11:50,50.9117283333333,-96.9825233333333,6.2,8.6,262,985.37,20.6,56,20.27,0.0,1011.27,90.0
2018-06-21 12:00,50.9117283333333,-96.9825233333333,6.2,9.0,261,985.39,20.8,56,20.27,0.0,1011.27,54.2
2018-06-21 12:10,50.9117283333333,-96.9825233333333,6.1,9.3,261,985.40,20.9,56,20.28,0.0,1011.24,54.2
2018-06-21 12:20,50.911735,-96.9825383333333,6.1,9.0,264,985.42,20.9,58,20.29,0.0,1011.25,54.2
2018-06-21 12:30,50.9117383333333,-96.982525,5.6,9.3,263,985.44,21.1,58,20.30,0.0,1011.25,54.2
2018-06-21 12:40,50.9117416666667,-96.982535,5.6,8.9,264,985.45,21.5,58,20.32,0.0,1011.22,54.2
2018-06-21 12:50,50.91172,-96.982505,5.4,7.8,255,985.46,22.2,56,20.33,0.0,1011.20,54.2
2018-06-21 13:00,50.9117266666667,-96.9825166666667,6.1,9.9,263,985.41,22.8,55,20.36,0.0,1011.11,90.0
2018-06-21 13:10,50.9117283333333,-96.9825183333333,6.4,8.5,267,985.39,23.3,53,20.38,0.0,1011.08,90.0
2018-06-21 13:20,50.9117283333333,-96.9825166666667,6.2,8.8,274,985.37,23.7,52,20.42,0.0,1011.07,90.0
2018-06-21 13:30,50.9117283333333,-96.9825166666667,6.4,8.8,285,985.38,24.2,50,20.45,0.0,1011.06,90.0
2018-06-21 13:40,50.91173,-96.9825183333333,6.2,8.3,277,985.36,24.6,49,20.50,0.0,1011.01,90.0
2018-06-21 13:50,50.91173,-96.9825333333333,5.2,7.4,273,985.33,25.1,49,20.56,0.0,1010.94,90.0
2018-06-21 14:00,50.911725,-96.9825283333333,5.3,7.6,263,985.36,25.5,48,20.62,0.0,1010.95,270.0
2018-06-21 14:10,50.9117216666667,-96.9825266666667,5.4,8.1,268,985.36,25.8,47,20.67,0.0,1010.94,270.0
2018-06-21 14:20,50.9117233333333,-96.9825266666667,3.8,6.9,262,985.38,26.4,45,20.72,0.0,1010.92,270.0
2018-06-21 14:30,50.911725,-96.9825266666667,5.5,9.1,250,985.35,27.0,42,20.78,0.0,1010.85,270.0
2018-06-21 14:40,50.9117233333333,-96.982525,4.5,7.6,245,985.35,27.3,43,20.84,0.0,1010.81,270.0
2018-06-21 14:50,50.9117266666667,-96.9825216666667,4.2,6.7,245,985.27,28.0,42,20.91,0.0,1010.67,270.0
2018-06-21 15:00,50.9117266666667,-96.9825266666667,5.2,8.0,241,985.23,28.2,42,20.97,0.0,1010.60,270.0
2018-06-21 15:10,50.911725,-96.982525,4.7,8.4,240,985.16,28.5,40,21.03,0.0,1010.50,270.0
2018-06-21 15:20,50.9117216666667,-96.982525,5.0,8.5,249,985.08,29.0,37,21.09,0.0,1010.37,270.0
2018-06-21 15:30,50.911725,-96.9825233333333,5.3,8.9,245,984.98,29.3,36,21.14,0.0,1010.23,270.0
2018-06-21 15:40,50.9117266666667,-96.9825233333333,6.1,9.6,236,984.99,29.6,33,21.19,0.0,1010.22,270.0
2018-06-21 15:50,50.9117283333333,-96.9825233333333,5.4,10.1,247,984.98,30.0,32,21.26,0.0,1010.17,270.0
2018-06-21 16:00,50.9117283333333,-96.9825233333333,6.4,10.4,243,984.97,30.2,30,21.34,0.0,1010.14,270.0
2018-06-21 16:10,50.9117266666667,-96.9825233333333,7.4,11.5,251,984.90,30.2,29,21.43,0.0,1010.04,270.0
2018-06-21 16:20,50.9117266666667,-96.9825233333333,6.6,11.9,252,984.83,30.5,28,21.54,0.0,1009.94,270.0
2018-06-21 16:30,50.91172,-96.9825083333333,5.4,10.0,235,984.81,30.6,28,21.60,0.0,1009.90,270.0
2018-06-21 16:40,50.911755,-96.98255,8.1,12.6,254,984.77,30.8,26,21.64,0.0,1009.82,270.0
2018-06-21 16:50,50.91173,-96.98253,6.7,11.4,258,984.72,31.0,26,21.67,0.0,1009.75,270.0
2018-06-21 17:00,50.9117316666667,-96.9825283333333,6.8,12.4,245,984.70,31.1,26,21.71,0.0,1009.72,37.5
2018-06-21 17:10,50.9117283333333,-96.982525,6.2,11.0,246,984.66,31.3,25,21.75,0.0,1009.65,37.5
2018-06-21 17:20,50.91173,-96.9825283333333,5.9,11.2,242,984.62,31.4,25,21.80,0.0,1009.58,37.5
2018-06-21 17:30,50.9117283333333,-96.9825266666667,7.1,11.9,245,984.63,31.6,25,21.85,0.0,1009.57,37.5
2018-06-21 17:40,50.9117283333333,-96.9825283333333,6.5,13.7,237,984.57,31.6,24,21.90,0.0,1009.50,37.5
2018-06-21 17:50,50.91173,-96.9825483333333,6.0,11.9,261,984.50,31.7,24,21.95,0.0,1009.41,37.5
2018-06-21 18:00,50.9117183333333,-96.9825233333333,5.5,13.9,250,984.52,31.8,24,22.00,0.0,1009.42,360.0
2018-06-21 18:10,50.9117166666667,-96.9825216666667,9.3,17.7,282,984.28,31.9,23,22.05,0.0,1009.16,360.0
2018-06-21 18:20,50.91172,-96.9825216666667,8.0,17.9,275,984.25,31.7,23,22.10,0.0,1009.14,360.0
2018-06-21 18:30,50.9117216666667,-96.98252,6.6,12.5,251,984.29,31.9,24,22.15,0.0,1009.16,360.0
2018-06-21 18:40,50.9117283333333,-96.98254,6.5,12.4,266,984.26,31.8,25,22.21,0.0,1009.13,360.0
2018-06-21 18:50,50.9117183333333,-96.9825183333333,6.0,11.6,229,984.25,32.1,25,22.26,0.0,1009.11,360.0
2018-06-21 19:00,50.91173,-96.9825183333333,7.3,13.1,257,984.19,32.1,25,22.31,0.0,1009.03,90.0
2018-06-21 19:10,50.91172,-96.982525,6.4,13.1,250,984.16,32.0,25,22.36,0.0,1009.00,90.0
2018-06-21 19:20,50.91172,-96.982525,6.3,14.7,269,984.07,32.2,24,22.40,0.0,1008.89,90.0
2018-06-21 19:30,50.9117233333333,-96.9825316666667,6.2,13.6,263,984.02,32.5,25,22.47,0.0,1008.83,90.0
2018-06-21 19:40,50.9117233333333,-96.9825083333333,5.7,13.9,283,983.99,32.1,24,22.52,0.0,1008.81,90.0
2018-06-21 19:50,50.91173,-96.9825316666667,5.7,12.5,254,983.95,32.1,25,22.56,0.0,1008.77,90.0
2018-06-21 20:00,50.911735,-96.9825416666667,8.0,16.6,252,983.82,32.1,25,22.61,0.0,1008.63,293.9
2018-06-21 20:10,50.9117316666667,-96.9825383333333,8.8,13.6,269,983.76,31.9,23,22.65,0.0,1008.58,293.9
2018-06-21 20:20,50.9117316666667,-96.9825333333333,6.7,12.5,273,983.75,31.9,23,22.70,0.0,1008.56,293.9
2018-06-21 20:30,50.9117316666667,-96.9825316666667,7.7,12.8,277,983.68,32.1,24,22.73,0.0,1008.48,293.9
2018-06-21 20:40,50.9117583333333,-96.9825816666667,7.2,13.5,291,983.64,32.1,24,22.77,0.0,1008.44,293.9
2018-06-21 20:50,50.9117333333333,-96.982525,6.1,12.6,282,983.63,32.4,23,22.80,0.0,1008.42,293.9
2018-06-21 21:00,50.91174,-96.98253,5.4,12.1,274,983.63,32.4,24,22.84,0.0,1008.42,360.0
2018-06-21 21:10,50.9117366666667,-96.9825283333333,6.8,11.1,280,983.60,32.3,23,22.88,0.0,1008.38,360.0
2018-06-21 21:20,50.9117366666667,-96.98251,6.8,12.6,284,983.51,32.6,23,22.93,0.0,1008.27,360.0
2018-06-21 21:30,50.9117466666667,-96.982545,7.9,15.5,269,983.52,32.3,23,22.98,0.0,1008.31,360.0
2018-06-21 21:40,50.911735,-96.982525,7.4,13.2,285,983.46,31.8,24,23.02,0.0,1008.27,360.0
2018-06-21 21:50,50.9117316666667,-96.98252,8.4,12.7,285,983.41,31.6,24,23.03,0.0,1008.22,360.0
2018-06-21 22:00,50.9117316666667,-96.9825233333333,11.7,18.4,270,983.34,31.4,26,23.03,0.0,1008.16,0.0
2018-06-21 22:10,50.91173,-96.9825266666667,10.8,16.3,267,983.40,31.1,27,23.04,0.0,1008.24,0.0
2018-06-21 22:20,50.9117283333333,-96.9825266666667,9.1,15.8,273,983.46,30.7,28,23.05,0.0,1008.31,0.0
2018-06-21 22:30,50.9117283333333,-96.982525,8.3,13.3,276,983.50,30.4,29,23.04,0.0,1008.36,0.0
2018-06-21 22:40,50.91173,-96.982525,10.9,15.1,283,983.36,30.5,27,23.03,0.0,1008.20,0.0
2018-06-21 22:50,50.91173,-96.9825283333333,8.6,13.2,281,983.34,30.7,27,23.02,0.0,1008.18,0.0
2018-06-21 23:00,50.91173,-96.98253,8.6,13.7,293,983.22,31.0,26,23.01,0.0,1008.04,113.9
2018-06-21 23:10,50.911715,-96.9825033333333,8.4,15.3,301,983.15,31.6,25,23.02,0.0,1007.94,113.9
2018-06-21 23:20,50.9117266666667,-96.9825316666667,9.9,13.5,291,983.02,31.8,24,23.04,0.0,1007.81,113.9
2018-06-21 23:30,50.9117216666667,-96.9825266666667,8.4,14.3,284,982.99,31.8,25,23.08,0.0,1007.80,113.9
2018-06-21 23:40,50.9117233333333,-96.98253,7.8,11.3,287,982.94,32.0,24,23.13,0.0,1007.75,113.9
2018-06-21 23:50,50.911725,-96.98253,11.6,16.2,290,982.77,31.5,25,23.17,0.0,1007.59,113.9
